﻿測定場所 (Monitoring sites),日付 (Measurement date),時間 (Measurement time),線量率 最大値 (max) μGy/h,線量率 最小値 (min) μGy/h,線量率 平均値 (average) μGy/h,
新宿 (Shinjuku),2012-01-01,23:00～23:59,0.0565,0.0504,0.0535,
新宿 (Shinjuku),2012-01-01,22:00～22:59,0.0557,0.0504,0.0529,
新宿 (Shinjuku),2012-01-01,21:00～21:59,0.0550,0.0507,0.0526,
新宿 (Shinjuku),2012-01-01,20:00～20:59,0.0555,0.0501,0.0528,
新宿 (Shinjuku),2012-01-01,19:00～19:59,0.0544,0.0497,0.0523,
新宿 (Shinjuku),2012-01-01,18:00～18:59,0.0545,0.0503,0.0523,
新宿 (Shinjuku),2012-01-01,17:00～17:59,0.0562,0.0502,0.0525,
新宿 (Shinjuku),2012-01-01,16:00～16:59,0.0551,0.0504,0.0525,
新宿 (Shinjuku),2012-01-01,15:00～15:59,0.0546,0.0504,0.0525,
新宿 (Shinjuku),2012-01-01,14:00～14:59,0.0562,0.0493,0.0528,
新宿 (Shinjuku),2012-01-01,13:00～13:59,0.0548,0.0504,0.0528,
新宿 (Shinjuku),2012-01-01,12:00～12:59,0.0558,0.0506,0.0531,
新宿 (Shinjuku),2012-01-01,11:00～11:59,0.0555,0.0505,0.0531,
新宿 (Shinjuku),2012-01-01,10:00～10:59,0.0565,0.0512,0.0538,
新宿 (Shinjuku),2012-01-01,09:00～09:59,0.0565,0.0509,0.0537,
新宿 (Shinjuku),2012-01-01,08:00～08:59,0.0548,0.0510,0.0531,
新宿 (Shinjuku),2012-01-01,07:00～07:59,0.0551,0.0513,0.0531,
新宿 (Shinjuku),2012-01-01,06:00～06:59,0.0560,0.0504,0.0531,
新宿 (Shinjuku),2012-01-01,05:00～05:59,0.0551,0.0494,0.0527,
新宿 (Shinjuku),2012-01-01,04:00～04:59,0.0558,0.0500,0.0527,
新宿 (Shinjuku),2012-01-01,03:00～03:59,0.0552,0.0502,0.0528,
新宿 (Shinjuku),2012-01-01,02:00～02:59,0.0547,0.0496,0.0525,
新宿 (Shinjuku),2012-01-01,01:00～01:59,0.0548,0.0490,0.0524,
新宿 (Shinjuku),2012-01-01,00:00～00:59,0.0551,0.0499,0.0524,
新宿 (Shinjuku),2011-12-31,23:00～23:59,0.0558,0.0499,0.0525,
新宿 (Shinjuku),2011-12-31,22:00～22:59,0.0549,0.0501,0.0525,
新宿 (Shinjuku),2011-12-31,21:00～21:59,0.0546,0.0490,0.0524,
新宿 (Shinjuku),2011-12-31,20:00～20:59,0.0545,0.0494,0.0519,
新宿 (Shinjuku),2011-12-31,19:00～19:59,0.0553,0.0493,0.0521,
新宿 (Shinjuku),2011-12-31,18:00～18:59,0.0547,0.0501,0.0520,
新宿 (Shinjuku),2011-12-31,17:00～17:59,0.0546,0.0492,0.0520,
新宿 (Shinjuku),2011-12-31,16:00～16:59,0.0551,0.0487,0.0517,
新宿 (Shinjuku),2011-12-31,15:00～15:59,0.0546,0.0497,0.0522,
新宿 (Shinjuku),2011-12-31,14:00～14:59,0.0542,0.0489,0.0515,
新宿 (Shinjuku),2011-12-31,13:00～13:59,0.0546,0.0497,0.0520,
新宿 (Shinjuku),2011-12-31,12:00～12:59,0.0551,0.0482,0.0520,
新宿 (Shinjuku),2011-12-31,11:00～11:59,0.0548,0.0500,0.0522,
新宿 (Shinjuku),2011-12-31,10:00～10:59,0.0556,0.0506,0.0523,
新宿 (Shinjuku),2011-12-31,09:00～09:59,0.0551,0.0503,0.0530,
新宿 (Shinjuku),2011-12-31,08:00～08:59,0.0544,0.0490,0.0524,
新宿 (Shinjuku),2011-12-31,07:00～07:59,0.0540,0.0505,0.0524,
新宿 (Shinjuku),2011-12-31,06:00～06:59,0.0544,0.0499,0.0521,
新宿 (Shinjuku),2011-12-31,05:00～05:59,0.0546,0.0501,0.0521,
新宿 (Shinjuku),2011-12-31,04:00～04:59,0.0548,0.0500,0.0524,
新宿 (Shinjuku),2011-12-31,03:00～03:59,0.0554,0.0489,0.0522,
新宿 (Shinjuku),2011-12-31,02:00～02:59,0.0550,0.0491,0.0520,
新宿 (Shinjuku),2011-12-31,01:00～01:59,0.0548,0.0499,0.0522,
新宿 (Shinjuku),2011-12-31,00:00～00:59,0.0546,0.0497,0.0519,
新宿 (Shinjuku),2011-12-30,23:00～23:59,0.0549,0.0486,0.0519,
新宿 (Shinjuku),2011-12-30,22:00～22:59,0.0542,0.0501,0.0522,
新宿 (Shinjuku),2011-12-30,21:00～21:59,0.0550,0.0502,0.0520,
新宿 (Shinjuku),2011-12-30,20:00～20:59,0.0541,0.0505,0.0520,
新宿 (Shinjuku),2011-12-30,19:00～19:59,0.0545,0.0489,0.0521,
新宿 (Shinjuku),2011-12-30,18:00～18:59,0.0544,0.0496,0.0520,
新宿 (Shinjuku),2011-12-30,17:00～17:59,0.0546,0.0495,0.0521,
新宿 (Shinjuku),2011-12-30,16:00～16:59,0.0548,0.0489,0.0515,
新宿 (Shinjuku),2011-12-30,15:00～15:59,0.0543,0.0497,0.0518,
新宿 (Shinjuku),2011-12-30,14:00～14:59,0.0542,0.0498,0.0521,
新宿 (Shinjuku),2011-12-30,13:00～13:59,0.0541,0.0496,0.0521,
新宿 (Shinjuku),2011-12-30,12:00～12:59,0.0558,0.0497,0.0522,
新宿 (Shinjuku),2011-12-30,11:00～11:59,0.0555,0.0497,0.0521,
新宿 (Shinjuku),2011-12-30,10:00～10:59,0.0548,0.0496,0.0523,
新宿 (Shinjuku),2011-12-30,09:00～09:59,0.0551,0.0503,0.0529,
新宿 (Shinjuku),2011-12-30,08:00～08:59,0.0555,0.0509,0.0529,
新宿 (Shinjuku),2011-12-30,07:00～07:59,0.0569,0.0506,0.0532,
新宿 (Shinjuku),2011-12-30,06:00～06:59,0.0557,0.0509,0.0532,
新宿 (Shinjuku),2011-12-30,05:00～05:59,0.0559,0.0508,0.0535,
新宿 (Shinjuku),2011-12-30,04:00～04:59,0.0555,0.0510,0.0531,
新宿 (Shinjuku),2011-12-30,03:00～03:59,0.0561,0.0513,0.0535,
新宿 (Shinjuku),2011-12-30,02:00～02:59,0.0561,0.0505,0.0532,
新宿 (Shinjuku),2011-12-30,01:00～01:59,0.0554,0.0503,0.0532,
新宿 (Shinjuku),2011-12-30,00:00～00:59,0.0552,0.0502,0.0529,
新宿 (Shinjuku),2011-12-29,23:00～23:59,0.0558,0.0502,0.0531,
新宿 (Shinjuku),2011-12-29,22:00～22:59,0.0559,0.0508,0.0533,
新宿 (Shinjuku),2011-12-29,21:00～21:59,0.0556,0.0509,0.0530,
新宿 (Shinjuku),2011-12-29,20:00～20:59,0.0550,0.0499,0.0527,
新宿 (Shinjuku),2011-12-29,19:00～19:59,0.0551,0.0500,0.0525,
新宿 (Shinjuku),2011-12-29,18:00～18:59,0.0548,0.0493,0.0521,
新宿 (Shinjuku),2011-12-29,17:00～17:59,0.0546,0.0503,0.0521,
新宿 (Shinjuku),2011-12-29,16:00～16:59,0.0543,0.0501,0.0522,
新宿 (Shinjuku),2011-12-29,15:00～15:59,0.0545,0.0496,0.0519,
新宿 (Shinjuku),2011-12-29,14:00～14:59,0.0548,0.0499,0.0525,
新宿 (Shinjuku),2011-12-29,13:00～13:59,0.0544,0.0498,0.0522,
新宿 (Shinjuku),2011-12-29,12:00～12:59,0.0548,0.0499,0.0524,
新宿 (Shinjuku),2011-12-29,11:00～11:59,0.0555,0.0506,0.0527,
新宿 (Shinjuku),2011-12-29,10:00～10:59,0.0555,0.0506,0.0532,
新宿 (Shinjuku),2011-12-29,09:00～09:59,0.0558,0.0513,0.0534,
新宿 (Shinjuku),2011-12-29,08:00～08:59,0.0559,0.0509,0.0533,
新宿 (Shinjuku),2011-12-29,07:00～07:59,0.0557,0.0509,0.0532,
新宿 (Shinjuku),2011-12-29,06:00～06:59,0.0559,0.0496,0.0532,
新宿 (Shinjuku),2011-12-29,05:00～05:59,0.0558,0.0506,0.0526,
新宿 (Shinjuku),2011-12-29,04:00～04:59,0.0546,0.0502,0.0526,
新宿 (Shinjuku),2011-12-29,03:00～03:59,0.0542,0.0497,0.0526,
新宿 (Shinjuku),2011-12-29,02:00～02:59,0.0558,0.0491,0.0526,
新宿 (Shinjuku),2011-12-29,01:00～01:59,0.0554,0.0494,0.0524,
新宿 (Shinjuku),2011-12-29,00:00～00:59,0.0551,0.0492,0.0521,
新宿 (Shinjuku),2011-12-28,23:00～23:59,0.0546,0.0488,0.0519,
新宿 (Shinjuku),2011-12-28,22:00～22:59,0.0541,0.0492,0.0516,
新宿 (Shinjuku),2011-12-28,21:00～21:59,0.0542,0.0487,0.0519,
新宿 (Shinjuku),2011-12-28,20:00～20:59,0.0549,0.0490,0.0520,
新宿 (Shinjuku),2011-12-28,19:00～19:59,0.0551,0.0497,0.0522,
新宿 (Shinjuku),2011-12-28,18:00～18:59,0.0548,0.0503,0.0520,
新宿 (Shinjuku),2011-12-28,17:00～17:59,0.0543,0.0493,0.0516,
新宿 (Shinjuku),2011-12-28,16:00～16:59,0.0541,0.0495,0.0519,
新宿 (Shinjuku),2011-12-28,15:00～15:59,0.0547,0.0493,0.0520,
新宿 (Shinjuku),2011-12-28,14:00～14:59,0.0549,0.0495,0.0518,
新宿 (Shinjuku),2011-12-28,13:00～13:59,0.0550,0.0484,0.0517,
新宿 (Shinjuku),2011-12-28,12:00～12:59,0.0549,0.0499,0.0516,
新宿 (Shinjuku),2011-12-28,11:00～11:59,0.0546,0.0488,0.0519,
新宿 (Shinjuku),2011-12-28,10:00～10:59,0.0546,0.0490,0.0516,
新宿 (Shinjuku),2011-12-28,09:00～09:59,0.0550,0.0497,0.0521,
新宿 (Shinjuku),2011-12-28,08:00～08:59,0.0552,0.0498,0.0523,
新宿 (Shinjuku),2011-12-28,07:00～07:59,0.0547,0.0492,0.0519,
新宿 (Shinjuku),2011-12-28,06:00～06:59,0.0541,0.0496,0.0521,
新宿 (Shinjuku),2011-12-28,05:00～05:59,0.0551,0.0487,0.0520,
新宿 (Shinjuku),2011-12-28,04:00～04:59,0.0548,0.0500,0.0521,
新宿 (Shinjuku),2011-12-28,03:00～03:59,0.0549,0.0501,0.0519,
新宿 (Shinjuku),2011-12-28,02:00～02:59,0.0540,0.0484,0.0517,
新宿 (Shinjuku),2011-12-28,01:00～01:59,0.0551,0.0498,0.0523,
新宿 (Shinjuku),2011-12-28,00:00～00:59,0.0551,0.0493,0.0521,
新宿 (Shinjuku),2011-12-27,23:00～23:59,0.0542,0.0502,0.0524,
新宿 (Shinjuku),2011-12-27,22:00～22:59,0.0538,0.0478,0.0519,
新宿 (Shinjuku),2011-12-27,21:00～21:59,0.0545,0.0492,0.0518,
新宿 (Shinjuku),2011-12-27,20:00～20:59,0.0541,0.0504,0.0520,
新宿 (Shinjuku),2011-12-27,19:00～19:59,0.0539,0.0496,0.0519,
新宿 (Shinjuku),2011-12-27,18:00～18:59,0.0539,0.0489,0.0519,
新宿 (Shinjuku),2011-12-27,17:00～17:59,0.0548,0.0499,0.0520,
新宿 (Shinjuku),2011-12-27,16:00～16:59,0.0545,0.0495,0.0517,
新宿 (Shinjuku),2011-12-27,15:00～15:59,0.0545,0.0497,0.0518,
新宿 (Shinjuku),2011-12-27,14:00～14:59,0.0537,0.0497,0.0516,
新宿 (Shinjuku),2011-12-27,13:00～13:59,0.0551,0.0495,0.0518,
新宿 (Shinjuku),2011-12-27,12:00～12:59,0.0544,0.0487,0.0522,
新宿 (Shinjuku),2011-12-27,11:00～11:59,0.0551,0.0499,0.0523,
新宿 (Shinjuku),2011-12-27,10:00～10:59,0.0551,0.0506,0.0524,
新宿 (Shinjuku),2011-12-27,09:00～09:59,0.0551,0.0507,0.0525,
新宿 (Shinjuku),2011-12-27,08:00～08:59,0.0556,0.0503,0.0526,
新宿 (Shinjuku),2011-12-27,07:00～07:59,0.0555,0.0496,0.0527,
新宿 (Shinjuku),2011-12-27,06:00～06:59,0.0559,0.0487,0.0525,
新宿 (Shinjuku),2011-12-27,05:00～05:59,0.0550,0.0504,0.0527,
新宿 (Shinjuku),2011-12-27,04:00～04:59,0.0546,0.0501,0.0525,
新宿 (Shinjuku),2011-12-27,03:00～03:59,0.0546,0.0498,0.0523,
新宿 (Shinjuku),2011-12-27,02:00～02:59,0.0558,0.0500,0.0528,
新宿 (Shinjuku),2011-12-27,01:00～01:59,0.0550,0.0503,0.0525,
新宿 (Shinjuku),2011-12-27,00:00～00:59,0.0544,0.0506,0.0524,
新宿 (Shinjuku),2011-12-26,23:00～23:59,0.0551,0.0496,0.0526,
新宿 (Shinjuku),2011-12-26,22:00～22:59,0.0554,0.0499,0.0526,
新宿 (Shinjuku),2011-12-26,21:00～21:59,0.0555,0.0491,0.0526,
新宿 (Shinjuku),2011-12-26,20:00～20:59,0.0548,0.0498,0.0526,
新宿 (Shinjuku),2011-12-26,19:00～19:59,0.0551,0.0504,0.0524,
新宿 (Shinjuku),2011-12-26,18:00～18:59,0.0549,0.0498,0.0524,
新宿 (Shinjuku),2011-12-26,17:00～17:59,0.0553,0.0503,0.0526,
新宿 (Shinjuku),2011-12-26,16:00～16:59,0.0553,0.0509,0.0526,
新宿 (Shinjuku),2011-12-26,15:00～15:59,0.0551,0.0496,0.0521,
新宿 (Shinjuku),2011-12-26,14:00～14:59,0.0544,0.0499,0.0523,
新宿 (Shinjuku),2011-12-26,13:00～13:59,0.0544,0.0500,0.0521,
新宿 (Shinjuku),2011-12-26,12:00～12:59,0.0548,0.0507,0.0525,
新宿 (Shinjuku),2011-12-26,11:00～11:59,0.0555,0.0505,0.0530,
新宿 (Shinjuku),2011-12-26,10:00～10:59,0.0565,0.0499,0.0529,
新宿 (Shinjuku),2011-12-26,09:00～09:59,0.0554,0.0504,0.0527,
新宿 (Shinjuku),2011-12-26,08:00～08:59,0.0545,0.0505,0.0526,
新宿 (Shinjuku),2011-12-26,07:00～07:59,0.0552,0.0494,0.0526,
新宿 (Shinjuku),2011-12-26,06:00～06:59,0.0558,0.0505,0.0528,
新宿 (Shinjuku),2011-12-26,05:00～05:59,0.0550,0.0500,0.0526,
新宿 (Shinjuku),2011-12-26,04:00～04:59,0.0547,0.0501,0.0524,
新宿 (Shinjuku),2011-12-26,03:00～03:59,0.0557,0.0503,0.0529,
新宿 (Shinjuku),2011-12-26,02:00～02:59,0.0562,0.0508,0.0528,
新宿 (Shinjuku),2011-12-26,01:00～01:59,0.0555,0.0503,0.0532,
新宿 (Shinjuku),2011-12-26,00:00～00:59,0.0550,0.0503,0.0527,
